Location: Argel�s
(43.0167°N, 0.1000°W)
Time: 05:15:56
(UTC+00:00)

Daily predictions for brighter satellites

Satellite Brightness Start Highest point End
(mag) Time Altitude Azimuth Time Altitude Azimuth Time Altitude Azimuth
Geosat 4.0 00:05:21 74° ENE 00:05:22 74° ENE 00:10:24 10° NNW
Nadezhda 2 Rocket 4.4 00:06:44 66° SW 00:07:34 75° W 00:13:57 10° N
Cosmos 2360 Rocket 3.1 00:04:56 10° NW 00:09:32 35° W 00:09:32 35° W
Nadezhda 1 Rocket 4.4 00:04:01 10° N 00:10:18 55° ENE 00:11:32 48° ESE
Meteor 1-25 Rocket 4.2 00:10:11 66° W 00:10:30 67° WNW 00:16:06 10° N
Cosmos 1862 Rocket 4.3 00:08:37 10° N 00:12:10 50° NE 00:12:10 50° NE
USA 229 DEB 4.1 00:10:12 10° NNW 00:17:33 69° NE 00:21:08 35° SE
USA 229 4.1 00:10:18 10° NNW 00:17:38 69° NE 00:21:16 34° SE
Resurs 1-4 Rocket 4.2 00:15:33 10° NE 00:18:34 15° E 00:19:08 15° E
Cosmos 2322 3.7 00:13:21 10° NNW 00:18:54 68° W 00:18:54 68° W
Lacrosse 5 4.0 00:21:12 15° E 00:21:12 15° E 00:22:40 10° ENE
Cosmos 1707 Rocket 4.4 00:18:56 10° NNW 00:22:09 44° NW 00:22:09 44° NW
Cosmos 1110 Rocket 4.0 00:18:09 10° NNW 00:23:30 78° ENE 00:23:33 78° ENE
Meteor 1-19 Rocket 4.1 00:18:58 10° NNW 00:24:39 73° W 00:24:41 73° WSW
Meteor 1-14 Rocket 4.1 00:26:17 75° ESE 00:26:23 76° E 00:31:59 10° NNE
Cosmos 2297 Rocket 3.0 00:31:41 37° ESE 00:31:41 37° ESE 00:36:46 10° NE
Cosmos 1331 Rocket 3.9 00:28:32 10° NNW 00:33:42 84° NNE 00:33:42 84° NNE
Cosmos 2237 Rocket 3.0 00:31:53 10° NNW 00:37:20 46° ENE 00:39:17 33° ESE
NOSS 3-1 (A) 4.1 00:30:20 10° NW 00:37:59 86° NE 00:41:59 37° SE
Cosmos 2322 Rocket 4.4 00:36:15 10° WNW 00:37:23 11° W 00:37:23 11° W
BREEZE-M DEB (TANK) 3.5 00:30:08 10° WSW 00:39:07 82° NNW 00:42:33 10° ENE
ARGOS Delta rocket 4.5 00:35:51 10° NNE 00:40:01 44° E 00:40:01 44° E
Cosmos 2227 Rocket 3.1 00:42:17 34° ESE 00:42:24 34° ESE 00:47:27 10° NE
Cosmos 2285 Rocket 4.4 00:37:42 10° NNW 00:43:37 45° WSW 00:43:43 45° WSW
EO 1 Del DPAF 4.4 00:43:28 10° NNE 00:45:57 40° NNE 00:45:57 40° NNE
Cosmos 2242 Rocket 4.2 00:46:09 10° N 00:50:12 50° ENE 00:50:12 50° ENE
ASTEX 1 4.1 00:51:42 41° E 00:52:16 43° ENE 00:56:53 10° N
Meteor 2-4 Rocket 3.7 00:47:37 10° NNW 00:53:34 75° W 00:54:04 70° SW
CZ-2D R/B 3.2 00:51:30 10° NNE 00:56:19 32° E 00:57:06 31° ESE
ADEOS II 4.1 00:56:10 10° NE 00:59:25 16° E 01:01:02 14° ESE
Cosmos 1269 Rocket 3.9 01:00:30 79° SE 01:00:38 80° ESE 01:05:56 10° NNE
SL-16 R/B 4.0 00:56:00 10° N 01:00:46 27° NE 01:05:30 10° ESE
COSMOS 2428 3.3 00:55:31 10° NW 01:00:22 43° W 01:00:22 43° W
Cosmos 2219 Rocket 3.3 01:02:12 10° NW 01:06:12 30° W 01:06:12 30° W
Meteor 1-5 Rocket 4.3 01:07:27 60° WSW 01:08:00 64° WNW 01:13:46 10° N
Cosmos 1869 Rocket 4.0 01:11:10 54° E 01:11:10 54° E 01:15:26 10° NNE
Meteor 2-17 Rocket 4.4 01:11:21 57° WSW 01:12:16 64° W 01:18:18 10° N
Cosmos 1743 3.8 01:19:32 38° ENE 01:19:32 38° ENE 01:22:42 10° NNE
Cosmos 1340 Rocket 3.6 01:20:53 44° NNW 01:20:53 44° NNW 01:23:55 10° N
COSMOS 2455 4.3 01:18:15 20° W 01:21:12 29° NW 01:26:23 10° NNE
Cosmos 1302 Rocket 3.9 01:17:51 10° NNW 01:23:02 70° WSW 01:23:07 70° WSW
Cosmos 1933 Rocket 4.2 01:24:35 45° WNW 01:24:35 45° WNW 01:28:34 10° N
Cosmos 1709 Rocket 4.0 01:23:31 55° SW 01:24:49 69° W 01:31:11 10° N
NOSS 0 Rocket 4.1 01:20:21 10° NW 01:26:23 52° WSW 01:26:46 51° WSW
Helios 1A 3.2 01:27:31 64° NW 01:27:31 64° NW 01:31:13 10° NNW
Cosmos 2219 3.1 01:28:52 63° SSW 01:29:52 89° WNW 01:35:40 10° NNE
Okean 3 3.5 01:25:57 10° N 01:30:10 77° ENE 01:30:10 77° ENE
Okean 1-7 3.5 01:26:58 10° NNW 01:30:27 49° NW 01:30:27 49° NW
Timation 2 Rocket 3.9 01:31:17 53° SSE 01:32:34 68° ESE 01:38:35 10° NNE
Cosmos 1066 Rocket 4.2 01:28:51 10° NNW 01:34:44 84° W 01:36:06 55° S
UNK 3.9 01:41:38 53° SE 01:42:39 71° ENE 01:47:19 10° N
Cosmos 2333 Rocket 4.4 01:45:15 10° WNW 01:45:40 11° W 01:45:40 11° W
SL-16 R/B 2.4 01:44:52 39° SSE 01:47:23 89° E 01:53:36 10° NNW
Cosmos 2184 Rocket 4.2 01:45:03 38° SSE 01:47:26 67° E 01:53:39 10° NNE
ATLAS 5 CENTAUR R/B 2.6 01:43:48 10° NW 01:49:23 49° WSW 01:50:05 47° SW
Helios 1B rocket 2.7 01:45:28 10° NNE 01:49:31 58° E 01:49:49 56° ESE
Meteor 1-11 Rocket 3.9 01:49:09 48° WSW 01:50:13 55° WNW 01:55:40 10° N
Cosmos 2082 3.9 01:48:53 46° SSE 01:50:24 63° ESE 01:56:04 10° NNE
IDEFIX/ARIANE 42P 4.2 01:46:12 10° NE 01:50:29 26° E 01:53:13 17° SE
MOZ.5/SAFIR/RUBIN 5/SL-8 4.3 01:51:18 44° W 01:51:18 44° W 01:55:39 10° NNW
Cosmos 2251 Rocket 3.6 01:54:37 48° SSE 01:55:57 67° ESE 02:01:13 10° NNE
Meteor 1-29 4.4 01:53:33 10° NE 01:56:29 28° E 01:56:32 28° E
Cosmos 1980 4.2 01:51:46 10° NW 01:57:00 40° WSW 01:57:05 40° WSW
Resurs 1-4 Rocket 2.1 01:53:36 10° N 01:58:54 71° WNW 02:00:13 50° SW
Cosmos 1842 4.2 01:56:37 10° N 02:00:19 43° ENE 02:01:26 34° ESE
Lacrosse 5 1.9 02:00:23 51° WSW 02:01:37 77° NW 02:06:43 10° NE
Cosmos 2084 Rocket 3.3 01:59:11 10° NW 02:03:26 69° SW 02:03:26 69° SW
ADEOS Rocket 2.7 02:08:20 35° S 02:10:50 81° WSW 02:16:22 10° NNW
Cosmos 1536 4.1 02:11:14 27° WNW 02:11:14 27° WNW 02:14:33 10° NNW
Cosmos 2074 Rocket 3.9 02:09:07 39° SSW 02:11:35 79° W 02:17:50 10° N
Cosmos 2297 Rocket 3.3 02:13:29 26° W 02:15:39 34° NW 02:20:48 10° N
Cosmos 1140 Rocket 4.5 02:14:51 24° SSE 02:17:25 40° ESE 02:22:17 10° NE
NPP 3.8 02:12:30 10° N 02:17:49 62° WNW 02:19:38 40° SW
Cosmos 2237 Rocket 3.2 02:16:26 10° NW 02:21:04 27° WSW 02:21:04 27° WSW
Cosmos 1356 Rocket 4.4 02:20:09 27° SE 02:21:47 40° E 02:25:33 10° NNE
SL-8 R/B 4.2 02:21:22 39° S 02:22:15 43° SE 02:26:48 10° ENE
Cosmos 1733 Rocket 3.0 02:22:03 50° SSW 02:23:09 76° W 02:27:37 10° N
AQUA 3.9 02:19:02 10° N 02:23:45 62° WNW 02:25:08 42° SW
Cosmos 2227 Rocket 3.1 02:24:05 26° W 02:26:23 37° WNW 02:31:36 10° N
ARIANE 5 R/B 4.2 02:25:16 10° NE 02:29:40 27° E 02:34:04 10° SSE
CZ-2D R/B 3.0 02:31:29 10° N 02:36:19 35° WNW 02:38:25 26° WSW
ADEOS II 2.2 02:34:20 10° N 02:39:33 65° WNW 02:41:58 32° SW
Meteor 2-9 Rocket 4.0 02:37:34 33° SSW 02:39:59 72° W 02:45:20 10° N
Okean 2 3.4 02:38:21 10° N 02:42:32 84° E 02:44:58 24° S
Cosmos 192 4.5 02:39:57 10° NNW 02:44:43 52° WSW 02:47:02 28° SSW
IRS-1D 3.4 02:39:47 10° N 02:44:45 78° WNW 02:47:17 30° SSW
SL-16 R/B 2.4 02:39:41 10° NW 02:45:08 50° WSW 02:48:30 22° S
CZ-4C R/B 4.1 02:41:48 10° SSE 02:45:45 55° ENE 02:49:56 10° N
CZ-4C R/B 3.3 02:39:00 10° NNW 02:46:18 71° NE 02:54:44 10° SE
Iridium 4 Rocket 3.8 02:47:21 10° N 02:52:47 63° W 02:56:32 22° SSW
Cosmos 2263 Rocket 2.3 02:49:22 24° SSW 02:52:54 73° ESE 02:58:36 10° NNE
Cosmos 2341 Rocket 4.1 02:51:57 16° S 02:57:05 80° E 03:03:19 10° N
Meteor 1-28 Rocket 3.5 02:56:40 35° SW 02:57:45 45° W 03:01:21 10° NNW
Cosmos 1782 Rocket 4.3 02:54:46 13° SSE 02:58:23 48° E 03:02:36 10° NNE
Cosmos 407 Rocket 3.5 03:00:28 25° SSW 03:03:40 74° WNW 03:08:57 10° NNE
Nadezhda 3 Rocket 4.3 03:01:51 10° NNW 03:07:56 48° W 03:12:33 17° SSW
GEOS 3 Rocket 4.1 03:03:25 10° SE 03:08:43 66° NE 03:14:00 10° NNW
In-Cosmos 22 4.2 03:03:18 10° N 03:09:07 86° W 03:14:50 10° S
ATLAS CENTAUR R/B 1.7 03:09:13 21° S 03:11:25 51° ESE 03:15:14 10° NE
Cosmos 1975 3.8 03:10:02 24° WSW 03:11:35 31° WNW 03:15:16 10° NNW
ALOS 4.4 03:11:22 10° NE 03:15:04 23° E 03:18:46 10° SE
KORONAS-FOTON 4.3 03:11:15 10° N 03:15:09 62° E 03:19:02 10° SSE
Spot 1 3.9 03:14:30 10° S 03:18:41 78° WSW 03:22:47 10° NNW
Cosmos 1461 3.4 03:16:06 21° SW 03:18:56 55° NW 03:23:21 10° NNE
USA 215 3.7 03:13:58 10° NE 03:20:22 54° SE 03:25:56 14° SSW
Cosmos 1707 3.1 03:18:40 10° NNW 03:22:18 42° W 03:24:46 18° SSW
Cosmos 1238 Rocket 3.7 03:22:22 19° W 03:23:14 22° WNW 03:25:54 10° NNW
COSMOS 2441 4.3 03:19:04 10° N 03:23:52 72° WNW 03:27:55 14° SSW
SL-08 R/B 3.6 03:19:09 10° SSE 03:24:05 79° ENE 03:29:03 10° N
Cosmos 1943 3.3 03:19:16 10° NNW 03:25:01 85° ENE 03:30:43 10° SSE
IRS-P3 4.1 03:22:14 10° N 03:27:34 74° WNW 03:32:28 12° SSW
IDEFIX/ARIANE 42P 3.2 03:25:22 10° N 03:30:11 40° WNW 03:34:01 15° SW
SL-16 R/B 4.1 03:29:57 12° WSW 03:31:47 14° W 03:34:51 10° WNW
SL-24 R/B - RUBIN 2 4.4 03:28:28 10° NNW 03:33:27 59° NE 03:37:54 10° SE
Cosmos 1733 3.6 03:33:51 10° S 03:37:39 64° E 03:41:28 10° NNE
Resurs 1-4 Rocket 4.3 03:36:45 10° NW 03:37:44 11° NW 03:38:44 10° WNW
Cosmos 1766 4.2 03:34:32 10° SSE 03:38:15 48° E 03:42:02 10° NNE
Cosmos 1300 Rocket 4.1 03:34:58 10° S 03:39:13 59° E 03:43:31 10° NNE
CZ-2C R/B 2.7 03:34:50 10° NNE 03:39:23 62° ESE 03:43:57 10° S
Meteor 1-12 Rocket 4.2 03:37:04 10° SSW 03:42:43 79° W 03:48:27 10° N
Cosmos 1975 Rocket 3.0 03:39:14 10° NNW 03:43:37 71° W 03:47:57 10° S
Lacrosse 5 3.7 03:41:14 10° WNW 03:45:18 24° NNW 03:49:23 10° NNE
Cosmos 1900 4.5 03:40:41 11° SSW 03:45:33 75° ESE 03:50:31 10° NE
Cosmos 2344 3.9 03:44:48 12° SW 03:51:44 57° NW 03:59:30 10° NNE
USA 267 4.5 03:47:16 10° E 03:53:24 45° NNE 03:59:33 10° NW
Cosmos 1821 Rocket 4.5 03:47:21 10° S 03:53:24 63° E 03:59:25 10° NNE
BREEZE-M DEB (TANK) 3.7 03:46:21 10° WSW 03:54:49 56° NNW 03:57:42 10° NE
Cosmos 1340 3.1 03:52:17 10° NNW 03:55:51 41° W 03:59:22 10° SSW
USA 290 2.9 03:54:18 10° NNW 03:57:31 60° ENE 04:00:43 10° SSE
Cosmos 1400 Rocket 2.8 03:54:21 10° SSW 03:58:10 64° WNW 04:02:04 10° N
CZ-3 Stage 3 3.6 03:55:52 10° S 03:58:15 15° SE 04:02:30 10° ESE
BREEZE-M DEB (TANK) 3.3 03:55:56 10° W 03:58:19 39° NNW 04:00:41 10° NE
Cosmos 1626 2.1 03:57:07 10° NNW 04:00:46 61° W 04:04:22 10° S
Cosmos 468 Rocket 4.1 03:58:56 10° NNW 04:04:16 85° ENE 04:09:32 10° SSE
SL-8 R/B 4.1 03:59:58 10° W 04:04:43 61° NNW 04:09:30 10° ENE
CZ-4B R/B 3.8 04:00:44 10° N 04:05:23 46° WNW 04:09:56 10° SW
Cosmos 1315 Rocket 4.1 04:01:35 10° SSE 04:05:29 44° E 04:09:22 10° NNE
Cosmos 1674 3.6 04:02:32 10° NNW 04:05:56 30° W 04:09:17 10° SSW
Cosmos 1844 Rocket 3.2 04:01:06 10° S 04:06:38 61° ESE 04:12:14 10° NNE
PSLV R/B 4.2 04:02:41 10° NNE 04:06:57 58° E 04:11:08 10° S
NOSS 3-4 (A) 4.4 04:01:25 10° NNW 04:08:24 69° NE 04:16:12 10° SE
NOSS 3-4 (C) 4.4 04:01:30 10° NNW 04:08:30 68° NE 04:16:20 10° SE
ARIANE 5 R/B 3.2 04:04:04 10° N 04:08:49 39° WNW 04:13:36 10° SW
Cosmos 1603 4.2 04:06:56 10° NW 04:12:07 39° WSW 04:17:17 10° S
FENGYUN 3A 3.7 04:06:56 10° NNE 04:12:24 90° W 04:17:48 10° SSW
Cosmos 44 4.0 04:09:29 10° NW 04:14:08 34° WSW 04:18:31 10° S
Milstar 3 4.2 04:09:54 10° SW 04:14:43 21° SSE 04:19:50 10° ESE
ATLAS 2AS CENTAUR R/B 4.2 04:11:03 10° NNW 04:18:03 45° NE 04:24:31 10° ESE
